CAPE
0 0 0 0 0 0 0 0 0 0 0 0 0 0 0 0 0 0 0 0 0 0 0 0 0 0 0 0 0 0 0 1 2 3 5 9 11 11
0 0 0 0 0 0 0 0 0 0 0 0 0 0 0 0 0 0 0 0 0 0 0 0 0 0 0 0 0 0 1 2 3 6 8 7 12 11
0 0 0 0 0 0 0 0 0 0 0 0 0 0 0 0 0 0 0 0 0 0 0 0 0 0 0 0 0 1 2 3 5 8 11 8 11 8
0 0 0 0 0 0 0 0 0 0 0 0 0 0 0 0 0 0 0 0 0 0 0 0 0 0 0 0 0 1 2 4 4 5 8 8 12 8
0 0 0 0 0 0 0 0 0 0 0 0 0 0 0 1 0 0 0 0 0 0 0 0 0 0 0 0 0 1 2 2 2 4 4 4 4 6
0 0 0 0 0 0 0 0 0 1 2 0 2 2 1 0 0 0 0 0 0 0 0 0 0 0 0 0 0 0 0 0 1 2 2 3 3 3
0 0 0 0 0 0 0 0 0 1 1 2 2 1 0 0 0 0 0 0 0 0 0 0 0 0 0 0 0 0 0 0 0 0 2 3 4 6
1 1 2 2 3 3 3 2 0 1 2 0 0 0 0 0 0 0 0 0 0 0 0 0 0 0 0 0 0 0 0 0 0 1 2 4 3 7
1 1 1 2 0 0 0 0 3 5 3 0 0 0 0 0 0 0 0 0 0 0 0 0 0 0 0 0 0 0 0 0 0 0 1 3 5 2
1 1 2 1 0 0 0 0 0 0 0 0 0 0 0 0 0 0 0 0 0 0 0 0 0 0 0 0 0 0 0 0 0 0 0 2 6 5
0 0 0 0 0 0 0 0 0 0 0 0 0 0 0 0 0 0 0 0 0 0 0 0 0 0 0 0 0 0 0 0 0 0 0 0 1 3
0 0 0 0 0 0 0 0 0 0 0 0 0 0 0 0 0 0 0 0 1 0 0 0 0 0 0 0 0 0 0 0 0 0 0 0 0 2
0 0 0 0 0 2 0 0 0 0 0 0 0 0 0 0 0 0 0 0 1 0 0 0 0 0 0 0 0 0 0 0 0 0 0 0 0 2
0 0 0 0 0 0 0 0 0 0 0 0 0 0 0 0 0 0 1 0 0 0 0 1 0 0 0 2 3 0 0 0 0 0 0 1 0 0
0 0 0 0 0 0 0 0 0 0 0 0 0 0 0 0 0 0 0 0 0 0 0 0 1 0 0 0 0 1 0 0 0 0 0 0 0 2
0 0 0 0 0 0 0 0 0 0 0 0 0 0 0 0 0 0 0 0 0 0 1 0 0 0 0 0 0 0 0 0 0 0 0 0 0 0
0 0 0 0 0 0 0 0 0 0 0 0 0 0 0 0 0 1 0 0 0 0 0 0 2 1 0 0 0 0 0 0 0 0 0 0 0 0
0 0 0 0 0 0 0 0 0 0 0 0 0 0 0 0 0 0 0 0 0 0 0 0 0 0 0 0 0 0 0 0 0 0 0 0 0 1
0 0 0 0 0 0 0 0 0 0 0 0 0 0 0 0 0 1 0 0 0 0 0 0 0 0 0 2 0 0 0 0 0 0 0 0 1 0
0 0 0 0 0 0 0 0 0 0 0 0 0 0 0 0 0 1 0 0 0 0 0 0 0 0 1 0 1 0 2 0 0 0 0 0 1 2
0 0 0 0 0 0 0 0 0 0 0 0 0 0 0 0 0 0 0 0 0 0 1 1 0 1 0 0 0 0 0 0 0 0 0 0 0 1
0 0 0 0 0 0 0 0 0 0 0 0 0 0 0 0 0 0 0 1 0 0 0 0 0 0 0 0 1 0 0 0 0 0 2 0 0 0
0 0 0 0 0 0 0 0 0 0 0 0 0 0 1 1 0 0 0 0 0 0 0 0 0 0 2 0 1 2 1 1 0 0 0 0 0 0
CIN
-0 -0 -0 -0 -0 -0 -0 -0 -0 -0 -0 -0 -0 -0 -0 -0 -0 -0 -0 -0 -0 -0 -0 -0 -0 -0 -0 -0 -0 -0 -1 -0 -1 -0 -1 -1 -1 -1
-0 -0 -0 -0 -0 -0 -0 -0 -0 -0 -0 -0 -0 -0 -0 -0 -0 -0 -0 -0 -0 -0 -0 -0 -0 -0 -0 -0 -0 -0 -1 -0 -1 -0 -1 -0 -0 -1
-0 -0 -0 -0 -0 -0 -0 -0 -0 -0 -0 -0 -0 -0 -0 -0 -0 -0 -0 -0 -0 -0 -0 -0 -0 -0 -0 -0 -0 -0 -1 -1 -1 -1 -1 -0 -0 -1
-0 -0 -0 -0 -0 -0 -0 -0 -0 -0 -0 -0 -0 -0 -0 -0 -0 -0 -0 -0 -0 -0 -0 -0 -0 -0 -0 -0 -0 -0 -0 -0 -1 -1 -1 -1 -1 -0
-0 -0 -0 -0 -0 -0 -0 -0 -0 -0 -0 -0 -0 -0 -0 -0 -0 -0 -0 -0 -0 -0 -0 -0 -0 -0 -0 -0 -0 -1 -1 -1 -0 -0 -1 -1 -1 -1
-0 -0 -0 -0 -0 -0 -0 -0 -0 -0 -0 -0 -0 -0 -0 -0 -0 -0 -0 -0 -0 -0 -0 -0 -0 -0 -0 -0 -0 -0 -0 -0 -1 -0 -0 -0 -0 -1
-0 -0 -0 -0 -0 -0 -0 -0 -0 -0 -0 -0 -0 -0 -0 -0 -0 -0 -0 -0 -0 -0 -0 -0 -0 -0 -0 -0 -0 -0 -0 -0 -0 -1 -1 -0 -1 -1
-0 -0 -0 -0 -0 -0 -0 -0 -0 -0 -0 -0 -0 -0 -0 -0 -0 -0 -0 -0 -0 -0 -0 -0 -0 -0 -0 -0 -0 -0 -0 -0 -0 -1 -0 -0 -0 -1
-0 -0 -0 -0 -0 -0 -0 -0 -0 -0 -0 -0 -0 -0 -0 -0 -0 -0 -0 -0 -0 -0 -0 -0 -0 -0 -0 -0 -0 -0 -0 -0 -0 -0 -1 -0 -0 -0
-0 -0 -0 -0 -0 -0 -0 -0 -0 -0 -0 -0 -0 -0 -0 -0 -0 -0 -0 -0 -0 -0 -0 -0 -0 -0 -0 -0 -0 -0 -0 -0 -0 -0 -0 -1 -0 -0
-0 -0 -0 -0 -0 -0 -0 -0 -0 -0 -0 -0 -0 -0 -0 -0 -0 -1 -0 -0 -0 -0 -0 -0 -0 -0 -0 -0 -0 -0 -0 -0 -0 -0 -0 -0 -0 -0
-0 -0 -0 -0 -0 -0 -0 -0 -0 -0 -0 -0 -0 -0 -0 -0 -0 -0 -0 -0 -0 -0 -0 -0 -0 -0 -0 -0 -0 -0 -0 -0 -0 -0 -0 -0 -1 -1
-0 -0 -0 -0 -0 -0 -0 -0 -0 -0 -0 -0 -0 -0 -0 -0 -0 -0 -0 -0 -1 -0 -0 -0 -0 -0 -0 -0 -0 -0 -0 -0 -0 -0 -0 -0 -0 -1
-0 -0 -0 -0 -0 -0 -0 -0 -0 -0 -0 -0 -0 -0 -0 -0 -0 -1 -0 -0 -1 -0 -0 -1 -0 -0 -0 -0 -0 -0 -0 -0 -0 -0 -0 -0 -0 -0
-0 -0 -0 -0 -0 -0 -0 -0 -0 -0 -0 -0 -0 -0 -0 -0 -0 -0 -0 -0 -0 -0 -0 -0 -0 -0 -0 -0 -0 -0 -0 -0 -0 -0 -0 -0 -0 -0
-0 -0 -0 -0 -0 -0 -0 -0 -0 -0 -0 -0 -0 -0 -0 -0 -0 -0 -1 -0 -0 -0 -0 -0 -0 -0 -0 -0 -0 -0 -0 -0 -0 -0 -0 -0 -0 -0
-0 -0 -0 -0 -0 -0 -0 -0 -0 -0 -0 -0 -0 -0 -0 -0 -0 -0 -0 -0 -0 -0 -0 -0 -0 -2 -0 -0 -0 -0 -0 -0 -1 -0 -0 -0 -0 -0
-0 -0 -0 -0 -0 -0 -0 -0 -0 -0 -0 -0 -0 -0 -1 -1 -0 -0 -0 -0 -0 -0 -0 -0 -0 -0 -0 -0 -0 -0 -0 -0 -0 -0 -2 -0 -1 -1
-0 -0 -0 -0 -0 -0 -0 -1 -1 -0 -1 -1 -0 -2 -2 -0 -0 -0 -0 -0 -0 -0 -0 -0 -1 -0 -0 -0 -0 -0 -0 -0 -0 -0 -0 -0 -0 -0
-0 -0 -0 -0 -0 -0 -0 -0 -0 -0 -1 -0 -0 -0 -0 -0 -0 -0 -0 -0 -0 -0 -0 -1 -0 -0 -0 -0 -0 -0 -0 -0 -0 -0 -0 -0 -1 -1
-0 -0 -0 -0 -0 -0 -0 -0 -1 -0 -0 -0 -0 -0 -0 -0 -0 -0 -0 -0 -1 -0 -0 -0 -0 -0 -0 -0 -0 -0 -0 -0 -0 -0 -0 -0 -0 -0
-0 -0 -0 -0 -0 -0 -0 -0 -0 -0 -0 -0 -0 -0 -0 -0 -0 -0 -0 -0 -0 -0 -0 -1 -1 -0 -0 -0 -0 -0 -0 -0 -0 -0 -3 -0 -0 -0
-0 -0 -0 -0 -0 -0 -0 -0 -0 -0 -0 -0 -0 -0 -0 -0 -0 -0 -0 -0 -0 -0 -0 -0 -0 -0 -1 -0 -0 -0 -0 -1 -0 -0 -0 -0 -0 -0
Wind_Speed
35 34 35 35 33 32 33 32 30 32 30 24 25 23 23 23 22 24 26 32 32 35 38 37 39 41 41 41 42 42 42 41 40 40 39 39 40 40
34 33 32 32 31 31 28 28 27 30 31 27 27 25 24 23 24 30 31 35 35 36 38 37 39 41 41 42 42 41 40 41 40 40 40 41 41 40
32 31 32 30 29 29 29 31 29 26 29 27 26 24 24 26 29 32 35 35 35 37 38 39 40 41 42 42 41 40 41 41 40 40 39 40 41 41
31 30 30 28 28 27 28 29 24 23 27 28 25 27 29 31 32 33 33 32 35 36 38 39 40 40 42 42 41 40 39 39 38 38 39 40 41 41
28 27 25 24 24 23 24 25 25 26 26 27 28 26 29 30 32 32 34 35 34 34 35 38 38 40 41 41 40 38 36 37 38 39 40 41 41 42
24 23 22 21 21 22 23 23 24 25 25 27 30 30 30 30 30 33 33 31 34 34 36 39 39 37 36 35 36 37 38 38 38 39 39 39 39 38
19 18 19 18 18 19 18 20 21 24 27 29 31 30 30 30 32 30 32 35 35 35 36 35 34 35 36 38 37 37 36 36 36 36 37 36 36 37
15 15 16 17 16 17 19 20 22 25 26 27 29 30 30 29 29 33 36 38 41 32 34 39 37 38 37 36 35 35 35 35 36 36 37 37 38 38
13 15 16 17 18 18 20 21 21 22 21 22 27 28 31 30 30 34 36 36 37 37 37 39 34 35 32 31 32 33 35 36 36 35 34 35 35 35
15 17 18 16 18 19 20 20 22 24 23 23 25 27 29 30 30 31 32 32 32 31 29 33 31 31 29 30 32 34 33 33 33 32 33 34 35 37
16 17 17 18 18 20 22 23 25 25 22 23 26 28 29 28 27 28 29 29 29 28 26 27 26 29 30 32 29 28 30 30 31 32 33 35 36 41
16 17 20 22 22 22 22 23 25 27 28 29 28 27 24 23 20 18 21 23 24 26 21 22 27 31 30 27 28 32 32 30 29 32 31 30 34 38
19 19 19 21 22 23 24 25 25 27 28 27 25 22 20 19 18 18 17 19 21 21 21 28 27 29 28 35 34 33 33 32 31 32 33 33 34 32
20 21 23 23 24 25 25 24 25 25 24 23 22 22 21 20 22 21 20 20 19 20 22 25 27 29 31 36 37 35 34 36 37 35 34 33 30 28
22 23 22 22 23 24 23 24 23 21 20 20 20 20 21 22 23 24 21 18 17 16 17 18 19 23 25 26 27 36 44 39 37 32 32 30 28 27
21 21 23 24 23 23 23 21 19 18 19 19 20 22 23 23 23 22 22 22 23 22 19 19 16 17 21 22 24 24 29 32 34 31 31 30 28 24
24 22 23 24 24 23 21 21 20 19 19 19 21 23 23 22 22 21 20 21 20 21 22 22 22 22 21 21 23 22 24 25 25 22 22 18 21 22
24 23 24 24 24 23 22 22 21 20 19 20 22 22 21 21 19 18 17 17 19 20 21 24 28 32 30 23 18 20 22 23 22 23 24 20 23 27
23 24 25 24 23 21 20 20 20 19 20 21 21 22 22 21 22 20 18 17 18 19 21 23 28 33 40 37 31 22 25 27 24 23 27 22 20 25
23 23 24 22 21 20 20 18 18 20 22 23 24 25 25 24 24 23 23 22 20 21 23 24 26 29 32 28 27 31 25 23 23 19 21 21 20 18
22 22 21 21 20 20 18 16 17 20 23 25 26 26 27 27 27 25 25 25 25 25 25 26 27 27 33 38 27 22 27 22 20 20 24 24 20 20
21 21 20 18 18 17 15 16 18 22 25 26 27 28 29 29 29 29 28 28 28 27 27 28 31 33 32 30 22 25 24 28 25 22 20 19 19 19
21 20 19 18 17 16 15 17 20 24 26 28 30 30 31 31 31 30 29 29 29 29 30 31 34 33 30 28 22 23 23 28 32 30 28 23 19 18
Wind_Direction
274 274 275 277 277 276 278 280 279 283 284 293 295 296 295 300 300 303 306 305 307 307 309 309 307 306 306 307 306 306 305 305 306 305 306 304 304 303
276 274 275 278 279 280 279 281 282 288 285 297 299 300 303 304 307 304 305 308 306 306 308 309 306 305 306 306 306 306 306 305 305 305 304 303 302 302
278 276 277 277 278 280 283 284 290 289 291 301 299 305 303 302 306 305 306 306 307 306 308 307 307 305 304 304 305 305 305 305 304 303 303 303 302 302
280 279 279 280 280 282 285 290 291 297 300 295 299 301 301 303 304 306 308 308 308 309 309 308 307 306 303 303 304 304 305 304 304 304 304 303 302 301
283 281 279 279 282 284 286 288 299 302 304 303 302 306 307 307 307 310 307 307 309 311 311 310 309 307 305 305 304 306 306 305 304 303 303 302 301 300
288 286 283 281 281 284 288 293 299 303 306 305 306 308 308 309 311 311 311 311 312 313 312 311 310 310 311 311 309 307 306 305 304 304 303 303 303 302
294 292 290 290 292 293 298 298 302 304 307 307 308 309 311 311 311 315 313 313 315 317 315 315 315 314 312 311 310 309 309 308 308 307 306 306 304 302
298 296 298 297 310 307 303 307 308 308 308 309 311 311 311 313 316 315 314 315 315 320 318 314 314 313 314 313 313 312 311 311 310 309 307 306 304 303
318 298 299 306 313 313 315 317 315 316 318 320 316 317 316 320 320 317 316 315 314 316 317 315 317 316 319 319 318 317 315 313 313 312 311 309 307 304
316 307 310 325 328 320 321 324 323 318 321 321 321 321 321 321 320 319 318 318 319 320 323 319 323 322 326 324 321 319 319 319 319 319 316 313 309 304
336 333 337 338 337 329 325 324 320 323 328 328 324 322 320 320 321 323 322 324 326 328 331 328 332 329 328 326 329 328 327 326 324 321 319 314 311 303
358 343 337 333 331 329 330 330 327 327 327 326 327 328 330 331 333 334 332 330 331 334 347 338 334 332 331 334 333 329 328 328 326 322 320 318 314 308
352 352 353 346 340 337 334 331 330 330 330 332 334 338 341 343 343 341 339 333 330 326 331 329 331 331 328 324 328 330 329 328 327 325 322 319 316 314
355 349 344 342 340 338 336 334 334 335 338 338 340 341 343 343 340 338 336 333 330 324 327 326 326 327 326 323 325 330 330 327 325 325 323 321 320 318
354 349 348 346 343 341 341 340 340 344 344 344 344 344 344 340 339 335 335 335 331 328 328 328 326 328 328 327 328 329 322 328 328 329 329 327 325 324
356 353 348 345 344 343 342 344 349 350 347 346 345 342 341 341 340 339 336 335 333 332 333 332 327 326 328 329 330 328 333 332 332 332 329 327 325 323
351 351 349 347 345 345 346 345 346 348 347 347 343 341 343 345 345 344 339 336 333 333 333 336 335 331 328 327 326 327 329 332 333 329 327 316 322 321
352 349 347 346 346 346 345 344 345 345 347 342 340 341 345 349 350 349 343 336 332 331 330 331 331 328 329 329 317 318 327 328 331 332 330 322 325 326
351 349 347 347 346 346 347 346 344 345 341 339 339 340 343 345 345 346 343 337 330 329 327 329 328 326 321 324 332 332 330 332 330 330 330 326 317 323
352 350 349 348 347 345 345 346 345 340 336 334 334 334 337 340 341 341 341 337 333 329 326 326 325 325 323 322 282 328 326 322 327 316 322 324 317 304
353 352 351 349 347 346 346 345 341 336 332 331 330 331 332 333 334 335 335 334 332 330 326 326 325 324 323 321 319 310 329 324 315 314 323 322 312 319
354 353 353 353 350 348 347 342 337 332 330 329 329 328 329 329 329 330 330 330 330 328 325 326 327 326 324 322 305 286 317 328 326 318 311 305 311 319
356 355 355 354 353 350 346 340 334 330 328 327 326 326 326 326 327 327 327 327 327 327 327 326 326 325 324 321 305 299 302 322 329 328 325 320 307 285